• In Spain
  • List of Countries
  • For 7 days
  • Water Temperature
  • Satellite Maps
  • Weather Map
  • Weather Widgets
  • user-avatar
    Login

    Hourly Weather Santiago del Estero

    Today, 21 October, Sunday

    Time Temperature Precipitation Wind Pressure Humidity
    00:00 +25°C° 0.2 mm 3 mps 741 mmHg 74%
    01:00 +25°C° 0.2 mm 3 mps 741 mmHg 73%
    02:00 +25°C° 0 mm 2 mps 741 mmHg 74%
    03:00 +24°C° 0 mm 2 mps 740 mmHg 75%
    04:00 +24°C° 0 mm 2 mps 740 mmHg 75%
    05:00 +24°C° 0 mm 2 mps 740 mmHg 76%
    06:00 +25°C° 0 mm 3 mps 741 mmHg 73%
    07:00 +26°C° 0 mm 3 mps 741 mmHg 70%
    08:00 +27°C° 0 mm 3 mps 741 mmHg 66%
    09:00 +29°C° 0 mm 4 mps 741 mmHg 61%
    10:00 +32°C° 0 mm 4 mps 741 mmHg 55%
    11:00 +34°C° 0 mm 5 mps 740 mmHg 50%
    12:00 +34°C° 0.2 mm 5 mps 740 mmHg 49%
    13:00 +35°C° 0.2 mm 4 mps 739 mmHg 48%
    14:00 +35°C° 0.2 mm 4 mps 739 mmHg 47%
    15:00 +35°C° 0 mm 4 mps 738 mmHg 47%
    16:00 +35°C° 0 mm 4 mps 738 mmHg 48%
    17:00 +35°C° 0 mm 4 mps 737 mmHg 48%
    18:00 +34°C° 0 mm 4 mps 738 mmHg 51%
    19:00 +33°C° 0 mm 4 mps 738 mmHg 53%
    20:00 +32°C° 0 mm 4 mps 739 mmHg 56%
    21:00 +30°C° 0.1 mm 4 mps 739 mmHg 58%
    22:00 +30°C° 0.1 mm 4 mps 739 mmHg 60%
    23:00 +29°C° 0.1 mm 4 mps 740 mmHg 63%

    Tomorrow, 22 October, Monday

    Time Temperature Precipitation Wind Pressure Humidity
    00:00 +28°C° 1 mm 3 mps 739 mmHg 68%
    01:00 +27°C° 1 mm 2 mps 739 mmHg 73%
    02:00 +26°C° 1 mm 2 mps 739 mmHg 78%
    03:00 +26°C° 1.3 mm 2 mps 739 mmHg 81%
    04:00 +25°C° 1.3 mm 3 mps 739 mmHg 83%
    05:00 +24°C° 1.3 mm 3 mps 739 mmHg 86%
    06:00 +24°C° 0.8 mm 3 mps 739 mmHg 84%
    07:00 +25°C° 0.8 mm 4 mps 740 mmHg 82%
    08:00 +25°C° 0.8 mm 4 mps 740 mmHg 80%
    09:00 +25°C° 1.4 mm 4 mps 741 mmHg 80%
    10:00 +26°C° 1.4 mm 3 mps 741 mmHg 80%
    11:00 +26°C° 1.4 mm 3 mps 741 mmHg 79%
    12:00 +26°C° 0.9 mm 4 mps 741 mmHg 82%
    13:00 +25°C° 0.9 mm 4 mps 740 mmHg 84%
    14:00 +25°C° 0.9 mm 5 mps 740 mmHg 86%
    15:00 +25°C° 0.2 mm 5 mps 740 mmHg 87%
    16:00 +25°C° 0.2 mm 5 mps 740 mmHg 88%
    17:00 +25°C° 0.2 mm 5 mps 740 mmHg 88%
    18:00 +23°C° 0.1 mm 5 mps 740 mmHg 89%
    19:00 +23°C° 0.1 mm 4 mps 741 mmHg 89%
    20:00 +23°C° 0.1 mm 4 mps 742 mmHg 89%
    21:00 +22°C° 0.6 mm 5 mps 742 mmHg 89%
    22:00 +22°C° 0.6 mm 5 mps 742 mmHg 89%
    23:00 +21°C° 0.6 mm 6 mps 743 mmHg 89%

    Day after tomorrow, 23 October, Tuesday

    Time Temperature Precipitation Wind Pressure Humidity
    00:00 +21°C° 1.1 mm 6 mps 742 mmHg 89%
    01:00 +21°C° 1.1 mm 6 mps 742 mmHg 89%
    02:00 +21°C° 1.1 mm 6 mps 742 mmHg 89%
    03:00 +21°C° 0.8 mm 6 mps 742 mmHg 89%
    04:00 +20°C° 0.8 mm 5 mps 743 mmHg 89%
    05:00 +20°C° 0.8 mm 5 mps 743 mmHg 89%
    06:00 +20°C° 0.5 mm 5 mps 743 mmHg 89%
    07:00 +21°C° 0.5 mm 5 mps 744 mmHg 89%
    08:00 +21°C° 0.5 mm 5 mps 744 mmHg 89%
    09:00 +21°C° 0.5 mm 4 mps 744 mmHg 89%
    10:00 +21°C° 0.5 mm 4 mps 744 mmHg 89%
    11:00 +21°C° 0.5 mm 4 mps 744 mmHg 89%
    12:00 +21°C° 0.3 mm 4 mps 744 mmHg 88%
    13:00 +21°C° 0.3 mm 4 mps 743 mmHg 88%
    14:00 +21°C° 0.3 mm 4 mps 743 mmHg 87%
    15:00 +21°C° 0.1 mm 3 mps 742 mmHg 88%
    16:00 +21°C° 0.1 mm 3 mps 742 mmHg 88%
    17:00 +21°C° 0.1 mm 3 mps 741 mmHg 88%
    18:00 +21°C° 0.1 mm 2 mps 742 mmHg 89%
    19:00 +20°C° 0.1 mm 2 mps 742 mmHg 90%
    20:00 +21°C° 0.1 mm 1 mps 743 mmHg 92%
    21:00 +21°C° 0.1 mm 1 mps 743 mmHg 92%
    22:00 +21°C° 0.1 mm 1 mps 743 mmHg 92%
    23:00 +21°C° 0.1 mm 1 mps 743 mmHg 92%

    24 October, Wednesday

    Time Temperature Precipitation Wind Pressure Humidity
    00:00 +21°C° 0.1 mm 1 mps 742 mmHg 93%
    01:00 +21°C° 0.1 mm 1 mps 741 mmHg 93%
    02:00 +21°C° 0.1 mm 1 mps 741 mmHg 93%
    03:00 +20°C° 0.1 mm 2 mps 741 mmHg 93%
    04:00 +20°C° 0.1 mm 2 mps 741 mmHg 93%
    05:00 +20°C° 0.1 mm 2 mps 740 mmHg 93%
    06:00 +21°C° 0 mm 2 mps 741 mmHg 92%
    07:00 +21°C° 0 mm 2 mps 741 mmHg 91%
    08:00 +21°C° 0 mm 2 mps 742 mmHg 90%
    09:00 +23°C° 0.1 mm 2 mps 742 mmHg 89%
    10:00 +23°C° 0.1 mm 2 mps 742 mmHg 88%
    11:00 +23°C° 0.1 mm 2 mps 742 mmHg 88%
    12:00 +25°C° 0 mm 2 mps 742 mmHg 83%
    13:00 +26°C° 0 mm 2 mps 741 mmHg 78%
    14:00 +27°C° 0 mm 3 mps 741 mmHg 72%
    15:00 +28°C° 0 mm 3 mps 740 mmHg 70%
    16:00 +28°C° 0 mm 3 mps 740 mmHg 68%
    17:00 +29°C° 0 mm 3 mps 740 mmHg 65%
    18:00 +27°C° 0 mm 3 mps 740 mmHg 70%
    19:00 +26°C° 0 mm 3 mps 741 mmHg 75%
    20:00 +25°C° 0 mm 2 mps 742 mmHg 80%
    21:00 +25°C° 0.1 mm 3 mps 742 mmHg 79%
    22:00 +25°C° 0.1 mm 3 mps 743 mmHg 79%
    23:00 +23°C° 0.1 mm 4 mps 743 mmHg 78%

    25 October, Thursday

    Time Temperature Precipitation Wind Pressure Humidity
    00:00 +23°C° 0.1 mm 4 mps 743 mmHg 79%
    01:00 +22°C° 0.1 mm 5 mps 742 mmHg 79%
    02:00 +21°C° 0.1 mm 5 mps 742 mmHg 80%
    03:00 +20°C° 0 mm 5 mps 742 mmHg 80%
    04:00 +20°C° 0 mm 4 mps 742 mmHg 81%
    05:00 +19°C° 0 mm 4 mps 742 mmHg 81%
    06:00 +20°C° 0.1 mm 4 mps 742 mmHg 80%
    07:00 +20°C° 0.1 mm 4 mps 743 mmHg 79%
    08:00 +21°C° 0.1 mm 3 mps 743 mmHg 78%
    09:00 +22°C° 0.2 mm 3 mps 743 mmHg 76%
    10:00 +22°C° 0.2 mm 3 mps 743 mmHg 73%
    11:00 +24°C° 0.2 mm 2 mps 743 mmHg 71%
    12:00 +25°C° 0.1 mm 2 mps 742 mmHg 69%
    13:00 +25°C° 0.1 mm 3 mps 742 mmHg 68%
    14:00 +26°C° 0.1 mm 3 mps 741 mmHg 66%
    15:00 +27°C° 0 mm 3 mps 740 mmHg 64%
    16:00 +27°C° 0 mm 3 mps 740 mmHg 63%
    17:00 +28°C° 0 mm 3 mps 740 mmHg 61%
    18:00 +26°C° 0 mm 3 mps 740 mmHg 65%
    19:00 +25°C° 0 mm 3 mps 741 mmHg 70%
    20:00 +24°C° 0 mm 2 mps 741 mmHg 74%
    21:00 +24°C° 0 mm 3 mps 742 mmHg 75%
    22:00 +24°C° 0 mm 3 mps 742 mmHg 75%
    23:00 +24°C° 0 mm 3 mps 742 mmHg 76%

    26 October, Friday

    Time Temperature Precipitation Wind Pressure Humidity
    00:00 +22°C° 0.8 mm 3 mps 742 mmHg 78%
    01:00 +22°C° 0.8 mm 3 mps 742 mmHg 80%
    02:00 +22°C° 0.8 mm 4 mps 741 mmHg 82%
    03:00 +21°C° 1.2 mm 4 mps 742 mmHg 84%
    04:00 +21°C° 1.2 mm 4 mps 742 mmHg 85%
    05:00 +21°C° 1.2 mm 5 mps 743 mmHg 87%
    06:00 +21°C° 0.4 mm 5 mps 744 mmHg 87%
    07:00 +20°C° 0.4 mm 5 mps 745 mmHg 86%
    08:00 +20°C° 0.4 mm 5 mps 746 mmHg 86%
    09:00 +22°C° 0 mm 4 mps 746 mmHg 80%
    10:00 +23°C° 0 mm 4 mps 746 mmHg 75%
    11:00 +25°C° 0 mm 3 mps 746 mmHg 70%
    12:00 +26°C° 0 mm 3 mps 745 mmHg 64%
    13:00 +27°C° 0 mm 4 mps 744 mmHg 59%
    14:00 +28°C° 0 mm 4 mps 744 mmHg 53%
    15:00 +28°C° 0 mm 4 mps 743 mmHg 53%
    16:00 +28°C° 0 mm 4 mps 743 mmHg 52%
    17:00 +28°C° 0 mm 4 mps 743 mmHg 52%
    18:00 +27°C° 0 mm 3 mps 743 mmHg 55%
    19:00 +25°C° 0 mm 2 mps 743 mmHg 59%
    20:00 +24°C° 0 mm 2 mps 744 mmHg 63%
    21:00 +24°C° 0 mm 2 mps 744 mmHg 62%
    22:00 +23°C° 0 mm 2 mps 745 mmHg 62%
    23:00 +23°C° 0 mm 2 mps 745 mmHg 62%
    Show more